Regional Weather Roundup
Issued by NWS

Home | Current Version | Previous Version | Text Only | Print | Product List | Glossary On
Versions: 1 2 3 4 5 6 7 8 9 10 11 12 13 14 15 16 17 18 19 20 21 22 23 24 25 26 27 28 29 30 31 32 33 34 35 36 37 38 39 40 41 42 43 44 45 46 47 48 49 50
000
ASUS42 KFFC 281003
RWRGA
WEATHER ROUNDUP FOR GEORGIA
NATIONAL WEATHER SERVICE PEACHTREE CITY GA
600 AM EDT MON JUL 28 2014

NOTE: "FAIR" INDICATES FEW OR NO CLOUDS BELOW 12,000 FEET WITH NO
SIGNIFICANT WEATHER AND/OR OBSTRUCTIONS TO VISIBILITY.

* = USE WITH CAUTION. THE STATIONS MARKED WITH AN ASTERISK MAY NOT
REPORT WEATHER SUCH AS PRECIPITATION, FOG, OR THUNDER AND ARE NOT
QUALITY CONTROLLED BY NWS.

THE REMARK "TC" DENOTES TEMPERATURE READING IN DEGREES CELSIUS.

GAZ001>058-281100-
NORTH GEORGIA

CITY           SKY/WX    TMP DP  RH WIND       PRES   REMARKS
ATLANTA        LGT RAIN  77  73  87 SW7       29.93F
ATHENS         CLOUDY    79  72  79 W3        29.90S
CHAMBLEE       MOCLDY    78  71  79 W6        29.92F
PEACHTREE CITY MOCLDY    78  72  81 W5        29.95S
ROME           LGT RAIN  78  70  76 CALM      29.91F
WEST ATLANTA   MOCLDY    78  72  81 SW5       29.93S
GAINESVILLE    CLOUDY    78  72  81 W8        29.94S
CARTERSVILLE   MOCLDY    78  72  81 CALM      29.92F


CITY           SKY/WX    TMP DP  RH WIND       PRES   REMARKS
DALTON*        PTCLDY    70  70 100 CALM      29.93S
MARIETTA       MOCLDY    77  74  88 SW6       29.93F
$$

GAZ059>098-102>109-281100-
CENTRAL GEORGIA

CITY           SKY/WX    TMP DP  RH WIND       PRES   REMARKS
AUGUSTA-BUSH   CLOUDY    81  72  74 SW9       29.86F
AUGUSTA-DANIEL CLOUDY    83  73  72 VRB7      29.88F
COLUMBUS       PTCLDY    78  73  84 W7        29.96S
MACON          MOCLDY    78  75  90 SW8       29.94S
ROBINS AFB     MOCLDY    80  74  81 SW8       29.94S


CITY           SKY/WX    TMP DP  RH WIND       PRES   REMARKS
LAGRANGE*      PTCLDY    81  77  89 W3        29.96F
SYLVANIA*      PTCLDY    79  76  91 W3        29.91F
MILLEDGEVILLE* MOCLDY    66  61  82 CALM      29.91S
$$

GAZ099>101-110>166-281100-
SOUTH GEORGIA

CITY           SKY/WX    TMP DP  RH WIND       PRES   REMARKS
SAVANNAH       MOCLDY    81  74  79 SW7       29.92F
VALDOSTA       PTCLDY    79  74  84 VRB3      30.00R
ALMA           PTCLDY    78  75  90 SW5       29.97R
ST SIMONS      PTCLDY    79  76  90 SW10      29.96S
FT STEWART     MOCLDY    80  75  86 SW7       29.93S
ALBANY         PTCLDY    77  76  96 SW5       30.00R
HUNTER AFB     MOCLDY    79  75  88 SW7       29.91S
MOODY AFB      CLEAR     78  78 100 SW8       29.99R
BRUNSWICK      PTCLDY    81  75  83 SW7       29.96F


CITY           SKY/WX    TMP DP  RH WIND       PRES   REMARKS
BAINBRIDGE*    CLEAR     81  79  94 W5        30.00S
MOULTRIE*      PTCLDY    77  77 100 SW5       30.01R
VIDALIA*         N/A     79  77  94 SW8       29.94F
WAYCROSS*      PTCLDY    81  79  94 W7        29.97S HX  90
DOUGLAS*       PTCLDY    79  75  89 SW6       29.99R
$$


USA.gov is the U.S. government's official web portal to all federal, state and local government web resources and services.